When you browse on this site, cookies collect data to enhance your experience and personalize the content and advertising you see.
Visit our Privacy Policy to learn more. By continuing to use the site, you agree to this use of cookies and data.
  • în România
  • Lista ţărilor
  • Pe 7 zile
  • Temperatura apei
  • Hartă satelitară
  • Meteo pe hartă
  • Widget-uri
  • user-avatar
    Intrare

    Meteo pe oră la Repnoe

    Astăzi, 18 Iulie, Joi

    Timp Temperatura Precipitaţii Vânt Presiune Umiditate
    00:00 +16°C° 0 mm 2 m/s 739 mmHg 90%
    01:00 +15°C° 0 mm 2 m/s 739 mmHg 91%
    02:00 +15°C° 0 mm 2 m/s 739 mmHg 91%
    03:00 +15°C° 0 mm 2 m/s 739 mmHg 92%
    04:00 +15°C° 0 mm 2 m/s 740 mmHg 91%
    05:00 +16°C° 0 mm 2 m/s 740 mmHg 89%
    06:00 +16°C° 0 mm 2 m/s 740 mmHg 88%
    07:00 +18°C° 0 mm 2 m/s 741 mmHg 82%
    08:00 +20°C° 0 mm 3 m/s 741 mmHg 76%
    09:00 +22°C° 0 mm 3 m/s 741 mmHg 70%
    10:00 +24°C° 0 mm 3 m/s 741 mmHg 64%
    11:00 +25°C° 0 mm 3 m/s 741 mmHg 58%
    12:00 +26°C° 0 mm 4 m/s 741 mmHg 52%
    13:00 +26°C° 0 mm 4 m/s 741 mmHg 51%
    14:00 +26°C° 0 mm 4 m/s 741 mmHg 50%
    15:00 +27°C° 0 mm 3 m/s 741 mmHg 49%
    16:00 +26°C° 0 mm 3 m/s 741 mmHg 53%
    17:00 +25°C° 0 mm 3 m/s 741 mmHg 58%
    18:00 +25°C° 0 mm 3 m/s 742 mmHg 63%
    19:00 +22°C° 0 mm 3 m/s 742 mmHg 68%
    20:00 +20°C° 0 mm 3 m/s 742 mmHg 74%
    21:00 +19°C° 0 mm 2 m/s 742 mmHg 80%
    22:00 +18°C° 0 mm 2 m/s 742 mmHg 81%
    23:00 +17°C° 0 mm 2 m/s 742 mmHg 82%

    Mâine, 19 Iulie, Vineri

    Timp Temperatura Precipitaţii Vânt Presiune Umiditate
    00:00 +17°C° 0 mm 2 m/s 742 mmHg 84%
    01:00 +16°C° 0 mm 2 m/s 743 mmHg 86%
    02:00 +15°C° 0 mm 2 m/s 743 mmHg 88%
    03:00 +15°C° 0 mm 2 m/s 743 mmHg 91%
    04:00 +15°C° 0 mm 2 m/s 743 mmHg 89%
    05:00 +15°C° 0 mm 2 m/s 743 mmHg 87%
    06:00 +16°C° 0 mm 2 m/s 743 mmHg 86%
    07:00 +17°C° 0 mm 2 m/s 744 mmHg 78%
    08:00 +19°C° 0 mm 3 m/s 744 mmHg 71%
    09:00 +21°C° 0 mm 4 m/s 744 mmHg 64%
    10:00 +22°C° 0 mm 4 m/s 744 mmHg 61%
    11:00 +23°C° 0 mm 5 m/s 744 mmHg 58%
    12:00 +23°C° 0 mm 5 m/s 744 mmHg 55%
    13:00 +25°C° 0 mm 5 m/s 744 mmHg 54%
    14:00 +25°C° 0 mm 5 m/s 744 mmHg 54%
    15:00 +25°C° 0 mm 5 m/s 744 mmHg 54%
    16:00 +25°C° 0 mm 5 m/s 744 mmHg 56%
    17:00 +25°C° 0 mm 4 m/s 744 mmHg 59%
    18:00 +23°C° 0 mm 4 m/s 744 mmHg 62%
    19:00 +22°C° 0 mm 3 m/s 745 mmHg 69%
    20:00 +20°C° 0 mm 3 m/s 745 mmHg 75%
    21:00 +18°C° 0 mm 3 m/s 745 mmHg 82%
    22:00 +18°C° 0 mm 3 m/s 745 mmHg 85%
    23:00 +17°C° 0 mm 3 m/s 745 mmHg 88%

    Poimâine, 20 Iulie, Sâmbătă

    Timp Temperatura Precipitaţii Vânt Presiune Umiditate
    00:00 +17°C° 0 mm 3 m/s 746 mmHg 91%
    01:00 +16°C° 0 mm 3 m/s 746 mmHg 92%
    02:00 +16°C° 0 mm 3 m/s 746 mmHg 93%
    03:00 +14°C° 0 mm 3 m/s 746 mmHg 94%
    04:00 +16°C° 0 mm 3 m/s 746 mmHg 93%
    05:00 +16°C° 0 mm 3 m/s 747 mmHg 91%
    06:00 +16°C° 0 mm 3 m/s 747 mmHg 89%
    07:00 +18°C° 0 mm 3 m/s 747 mmHg 81%
    08:00 +19°C° 0 mm 4 m/s 747 mmHg 73%
    09:00 +21°C° 0 mm 4 m/s 748 mmHg 66%
    10:00 +22°C° 0 mm 5 m/s 748 mmHg 61%
    11:00 +23°C° 0 mm 5 m/s 748 mmHg 56%
    12:00 +25°C° 0 mm 5 m/s 748 mmHg 51%
    13:00 +25°C° 0 mm 5 m/s 748 mmHg 51%
    14:00 +26°C° 0 mm 5 m/s 748 mmHg 50%
    15:00 +26°C° 0 mm 6 m/s 748 mmHg 49%
    16:00 +25°C° 0.1 mm 5 m/s 748 mmHg 54%
    17:00 +25°C° 0.1 mm 5 m/s 748 mmHg 59%
    18:00 +23°C° 0.1 mm 4 m/s 748 mmHg 64%
    19:00 +22°C° 0 mm 4 m/s 748 mmHg 70%
    20:00 +20°C° 0 mm 3 m/s 749 mmHg 75%
    21:00 +19°C° 0 mm 3 m/s 749 mmHg 80%
    22:00 +18°C° 0 mm 3 m/s 749 mmHg 82%
    23:00 +17°C° 0 mm 3 m/s 749 mmHg 85%

    21 Iulie, Duminică

    Timp Temperatura Precipitaţii Vânt Presiune Umiditate
    00:00 +17°C° 0 mm 3 m/s 749 mmHg 87%
    01:00 +16°C° 0 mm 3 m/s 749 mmHg 88%
    02:00 +16°C° 0 mm 3 m/s 749 mmHg 89%
    03:00 +16°C° 0 mm 3 m/s 749 mmHg 91%
    04:00 +16°C° 0 mm 3 m/s 749 mmHg 89%
    05:00 +16°C° 0 mm 2 m/s 749 mmHg 88%
    06:00 +17°C° 0 mm 2 m/s 749 mmHg 86%
    07:00 +19°C° 0 mm 3 m/s 749 mmHg 78%
    08:00 +20°C° 0 mm 3 m/s 749 mmHg 70%
    09:00 +22°C° 0 mm 3 m/s 749 mmHg 62%
    10:00 +23°C° 0 mm 4 m/s 749 mmHg 58%
    11:00 +25°C° 0 mm 4 m/s 749 mmHg 54%
    12:00 +26°C° 0 mm 5 m/s 749 mmHg 50%
    13:00 +26°C° 0 mm 5 m/s 749 mmHg 50%
    14:00 +26°C° 0 mm 5 m/s 748 mmHg 50%
    15:00 +26°C° 0 mm 5 m/s 748 mmHg 50%
    16:00 +26°C° 0 mm 4 m/s 748 mmHg 53%
    17:00 +26°C° 0 mm 4 m/s 748 mmHg 55%
    18:00 +25°C° 0 mm 4 m/s 748 mmHg 58%
    19:00 +22°C° 0 mm 3 m/s 748 mmHg 64%
    20:00 +21°C° 0 mm 3 m/s 748 mmHg 71%
    21:00 +19°C° 0 mm 3 m/s 748 mmHg 77%
    22:00 +18°C° 0 mm 3 m/s 748 mmHg 81%
    23:00 +17°C° 0 mm 3 m/s 748 mmHg 85%

    22 Iulie, Luni

    Timp Temperatura Precipitaţii Vânt Presiune Umiditate
    00:00 +17°C° 0 mm 3 m/s 748 mmHg 89%
    01:00 +16°C° 0 mm 3 m/s 748 mmHg 90%
    02:00 +16°C° 0 mm 3 m/s 748 mmHg 91%
    03:00 +16°C° 0 mm 3 m/s 748 mmHg 93%
    04:00 +16°C° 0 mm 3 m/s 748 mmHg 90%
    05:00 +16°C° 0 mm 3 m/s 748 mmHg 88%
    06:00 +17°C° 0 mm 3 m/s 748 mmHg 85%
    07:00 +18°C° 0 mm 3 m/s 748 mmHg 77%
    08:00 +20°C° 0 mm 4 m/s 748 mmHg 70%
    09:00 +22°C° 0 mm 4 m/s 748 mmHg 62%
    10:00 +23°C° 0 mm 4 m/s 748 mmHg 59%
    11:00 +25°C° 0 mm 4 m/s 747 mmHg 55%
    12:00 +26°C° 0 mm 4 m/s 747 mmHg 52%
    13:00 +26°C° 0 mm 4 m/s 747 mmHg 51%
    14:00 +26°C° 0 mm 4 m/s 747 mmHg 50%
    15:00 +27°C° 0 mm 4 m/s 747 mmHg 49%
    16:00 +26°C° 0 mm 4 m/s 747 mmHg 51%
    17:00 +26°C° 0 mm 3 m/s 746 mmHg 53%
    18:00 +25°C° 0 mm 3 m/s 746 mmHg 55%
    19:00 +23°C° 0 mm 2 m/s 746 mmHg 61%
    20:00 +21°C° 0 mm 1 m/s 746 mmHg 66%
    21:00 +20°C° 0 mm 1 m/s 746 mmHg 71%
    22:00 +19°C° 0 mm 1 m/s 746 mmHg 74%
    23:00 +18°C° 0 mm 1 m/s 746 mmHg 77%

    23 Iulie, Marţi

    Timp Temperatura Precipitaţii Vânt Presiune Umiditate
    00:00 +16°C° 0 mm 0 m/s 745 mmHg 79%
    01:00 +16°C° 0 mm 1 m/s 745 mmHg 80%
    02:00 +16°C° 0 mm 1 m/s 745 mmHg 80%
    03:00 +16°C° 0 mm 1 m/s 745 mmHg 81%
    04:00 +18°C° 0 mm 1 m/s 745 mmHg 80%
    05:00 +18°C° 0 mm 1 m/s 745 mmHg 79%
    06:00 +19°C° 0 mm 1 m/s 745 mmHg 77%
    07:00 +20°C° 0 mm 1 m/s 745 mmHg 72%
    08:00 +21°C° 0 mm 2 m/s 745 mmHg 67%
    09:00 +23°C° 0 mm 2 m/s 744 mmHg 62%
    10:00 +21°C° 0.3 mm 3 m/s 744 mmHg 67%
    11:00 +21°C° 0.3 mm 4 m/s 744 mmHg 72%
    12:00 +20°C° 0.3 mm 5 m/s 744 mmHg 78%
    13:00 +20°C° 0.2 mm 4 m/s 744 mmHg 81%
    14:00 +19°C° 0.2 mm 4 m/s 744 mmHg 83%
    15:00 +18°C° 0.2 mm 3 m/s 744 mmHg 86%
    16:00 +19°C° 0 mm 3 m/s 744 mmHg 85%
    17:00 +19°C° 0 mm 3 m/s 744 mmHg 84%
    18:00 +19°C° 0 mm 3 m/s 743 mmHg 82%
    19:00 +19°C° 0.1 mm 3 m/s 743 mmHg 86%
    20:00 +18°C° 0.1 mm 3 m/s 743 mmHg 89%
    21:00 +18°C° 0.1 mm 3 m/s 743 mmHg 92%
    22:00 +17°C° 0.5 mm 3 m/s 743 mmHg 94%
    23:00 +17°C° 0.5 mm 4 m/s 743 mmHg 95%
    Arată mai mult